Time,TemperatureF,DewpointF,PressureIn,WindDirection,WindDirectionDegrees,WindSpeedMPH,WindSpeedGustMPH,Humidity,HourlyPrecipIn,Conditions,Clouds,dailyrainin,SoftwareType,DateUTC
2013-02-07 00:02:00,15.0,11.0,-100.00,ESE,110,0.0,0.0,85,-99.99,,,-99.99,,2013-02-07 05:02:00,
2013-02-07 00:12:00,15.0,11.0,-100.00,ESE,115,0.0,0.0,85,-99.99,,,-99.99,,2013-02-07 05:12:00,
2013-02-07 00:21:00,14.0,11.0,-100.00,ESE,115,0.0,0.0,85,-99.99,,,-99.99,,2013-02-07 05:21:00,
2013-02-07 00:32:00,14.0,10.0,-100.00,ESE,115,0.0,0.0,86,-99.99,,,-99.99,,2013-02-07 05:32:00,
2013-02-07 00:42:00,13.0,10.0,-100.00,ESE,115,0.0,0.0,86,-99.99,,,-99.99,,2013-02-07 05:42:00,
2013-02-07 00:52:00,13.0,10.0,-100.00,East,95,0.0,0.0,86,-99.99,,,-99.99,,2013-02-07 05:52:00,
2013-02-07 01:02:00,13.0,10.0,-100.00,East,95,0.0,0.0,87,-99.99,,,-99.99,,2013-02-07 06:02:00,
2013-02-07 01:11:00,13.0,10.0,-100.00,SE,130,0.0,0.0,87,-99.99,,,-99.99,,2013-02-07 06:11:00,
2013-02-07 01:22:00,13.0,10.0,-100.00,SE,130,0.0,0.0,87,-99.99,,,-99.99,,2013-02-07 06:22:00,
2013-02-07 01:32:00,13.0,11.0,-100.00,SE,130,0.0,1.0,87,-99.99,,,-99.99,,2013-02-07 06:32:00,
2013-02-07 01:43:00,13.0,10.0,-100.00,SE,130,0.0,0.0,88,-99.99,,,-99.99,,2013-02-07 06:43:00,
2013-02-07 01:52:00,13.0,10.0,-100.00,ENE,70,0.0,0.0,88,-99.99,,,-99.99,,2013-02-07 06:52:00,
2013-02-07 02:02:00,13.0,11.0,-100.00,ENE,70,0.0,0.0,88,-99.99,,,-99.99,,2013-02-07 07:02:00,
2013-02-07 02:11:00,14.0,11.0,-100.00,ENE,70,0.0,0.0,88,-99.99,,,-99.99,,2013-02-07 07:11:00,
2013-02-07 02:22:00,14.0,12.0,-100.00,ENE,70,0.0,0.0,89,-99.99,,,-99.99,,2013-02-07 07:22:00,
2013-02-07 02:32:00,15.0,12.0,-100.00,ENE,70,0.0,0.0,89,-99.99,,,-99.99,,2013-02-07 07:32:00,
2013-02-07 02:42:00,15.0,12.0,-100.00,ENE,70,0.0,0.0,89,-99.99,,,-99.99,,2013-02-07 07:42:00,
2013-02-07 02:52:00,15.0,13.0,-100.00,NNE,20,0.0,0.0,89,-99.99,,,-99.99,,2013-02-07 07:52:00,
2013-02-07 03:02:00,15.0,13.0,-100.00,NNE,20,0.0,0.0,89,-99.99,,,-99.99,,2013-02-07 08:02:00,
2013-02-07 03:11:00,15.0,13.0,-100.00,NNE,20,0.0,0.0,89,-99.99,,,-99.99,,2013-02-07 08:11:00,
2013-02-07 03:21:00,15.0,13.0,-100.00,NNE,25,0.0,0.0,89,-99.99,,,-99.99,,2013-02-07 08:21:00,
2013-02-07 03:32:00,15.0,12.0,-100.00,NNE,25,0.0,0.0,89,-99.99,,,-99.99,,2013-02-07 08:32:00,
2013-02-07 03:42:00,15.0,13.0,-100.00,NNE,25,0.0,0.0,89,-99.99,,,-99.99,,2013-02-07 08:42:00,
2013-02-07 03:52:00,15.0,13.0,-100.00,NNE,25,0.0,0.0,89,-99.99,,,-99.99,,2013-02-07 08:52:00,
2013-02-07 04:02:00,16.0,14.0,-100.00,NNE,20,0.0,0.0,89,-99.99,,,-99.99,,2013-02-07 09:02:00,
2013-02-07 04:11:00,17.0,14.0,-100.00,NE,35,0.0,0.0,89,-99.99,,,-99.99,,2013-02-07 09:11:00,
2013-02-07 04:21:00,17.0,14.0,-100.00,NE,35,0.0,0.0,89,-99.99,,,-99.99,,2013-02-07 09:21:00,
2013-02-07 04:32:00,17.0,15.0,-100.00,NE,35,0.0,0.0,89,-99.99,,,-99.99,,2013-02-07 09:32:00,
2013-02-07 04:42:00,18.0,15.0,-100.00,NE,35,0.0,2.0,89,-99.99,,,-99.99,,2013-02-07 09:42:00,
2013-02-07 04:52:00,18.0,15.0,-100.00,NNE,15,0.0,1.0,89,-99.99,,,-99.99,,2013-02-07 09:52:00,
2013-02-07 05:02:00,18.0,16.0,-100.00,NNE,15,0.0,1.0,89,-99.99,,,-99.99,,2013-02-07 10:02:00,
2013-02-07 05:11:00,19.0,16.0,-100.00,NNE,15,0.0,0.0,89,-99.99,,,-99.99,,2013-02-07 10:11:00,
2013-02-07 05:22:00,19.0,16.0,-100.00,NNE,15,0.0,0.0,89,-99.99,,,-99.99,,2013-02-07 10:22:00,
2013-02-07 05:32:00,19.0,17.0,-100.00,NNE,15,0.0,0.0,89,-99.99,,,-99.99,,2013-02-07 10:32:00,
2013-02-07 05:42:00,19.0,17.0,-100.00,West,265,0.0,0.0,88,-99.99,,,-99.99,,2013-02-07 10:42:00,
2013-02-07 05:51:00,19.0,17.0,-100.00,West,265,0.0,0.0,88,-99.99,,,-99.99,,2013-02-07 10:51:00,
2013-02-07 06:01:00,20.0,17.0,-100.00,NE,40,0.0,2.0,87,-99.99,,,-99.99,,2013-02-07 11:01:00,
2013-02-07 06:11:00,20.0,17.0,-100.00,NW,305,0.0,0.0,87,-99.99,,,-99.99,,2013-02-07 11:11:00,
2013-02-07 06:23:00,21.0,18.0,-100.00,NNE,15,0.0,0.0,87,-99.99,,,-99.99,,2013-02-07 11:23:00,
2013-02-07 06:32:00,21.0,18.0,-100.00,ESE,120,1.0,4.0,85,-99.99,,,-99.99,,2013-02-07 11:32:00,
2013-02-07 06:44:00,22.0,17.0,-100.00,East,95,1.0,4.0,82,-99.99,,,-99.99,,2013-02-07 11:44:00,
2013-02-07 06:52:00,22.0,17.0,-100.00,East,85,1.0,4.0,80,-99.99,,,-99.99,,2013-02-07 11:52:00,
2013-02-07 07:02:00,23.0,17.0,-100.00,ESE,115,1.0,2.0,78,-99.99,,,-99.99,,2013-02-07 12:02:00,
2013-02-07 07:11:00,23.0,17.0,-100.00,East,90,1.0,4.0,76,-99.99,,,-99.99,,2013-02-07 12:11:00,
2013-02-07 07:22:00,23.0,17.0,-100.00,East,95,1.0,4.0,74,-99.99,,,-99.99,,2013-02-07 12:22:00,
2013-02-07 07:33:00,24.0,16.0,-100.00,ENE,75,2.0,7.0,71,-99.99,,,-99.99,,2013-02-07 12:33:00,
2013-02-07 07:42:00,24.0,15.0,-100.00,East,90,1.0,6.0,70,-99.99,,,-99.99,,2013-02-07 12:42:00,
2013-02-07 07:52:00,24.0,14.0,-100.00,East,100,5.0,8.0,67,-99.99,,,-99.99,,2013-02-07 12:52:00,
2013-02-07 08:03:00,24.0,14.0,-100.00,ESE,120,2.0,6.0,66,-99.99,,,-99.99,,2013-02-07 13:03:00,
2013-02-07 08:12:00,24.0,15.0,-100.00,East,90,2.0,6.0,66,-99.99,,,-99.99,,2013-02-07 13:12:00,
2013-02-07 08:22:00,25.0,15.0,-100.00,East,80,3.0,7.0,64,-99.99,,,-99.99,,2013-02-07 13:22:00,
2013-02-07 08:32:00,25.0,14.0,-100.00,ESE,105,5.0,9.0,63,-99.99,,,-99.99,,2013-02-07 13:32:00,
2013-02-07 08:42:00,25.0,15.0,-100.00,ESE,120,3.0,7.0,63,-99.99,,,-99.99,,2013-02-07 13:42:00,
2013-02-07 08:52:00,26.0,15.0,-100.00,ESE,120,4.0,7.0,63,-99.99,,,-99.99,,2013-02-07 13:52:00,
2013-02-07 09:01:00,26.0,15.0,-100.00,East,95,1.0,6.0,62,-99.99,,,-99.99,,2013-02-07 14:01:00,
2013-02-07 09:11:00,26.0,15.0,-100.00,East,95,1.0,6.0,62,-99.99,,,-99.99,,2013-02-07 14:11:00,
2013-02-07 09:22:00,26.0,15.0,-100.00,East,95,1.0,6.0,62,-99.99,,,-99.99,,2013-02-07 14:22:00,
2013-02-07 09:32:00,28.0,15.0,-100.00,East,100,4.0,9.0,59,-99.99,,,-99.99,,2013-02-07 14:32:00,
2013-02-07 09:42:00,28.0,15.0,-100.00,East,100,4.0,11.0,59,-99.99,,,-99.99,,2013-02-07 14:42:00,
2013-02-07 09:52:00,28.0,15.0,-100.00,East,100,4.0,9.0,59,-99.99,,,-99.99,,2013-02-07 14:52:00,
2013-02-07 10:02:00,28.0,16.0,-100.00,East,80,3.0,6.0,58,-99.99,,,-99.99,,2013-02-07 15:02:00,
2013-02-07 10:11:00,28.0,16.0,-100.00,East,85,5.0,7.0,58,-99.99,,,-99.99,,2013-02-07 15:11:00,
2013-02-07 10:22:00,29.0,16.0,-100.00,East,95,3.0,9.0,58,-99.99,,,-99.99,,2013-02-07 15:22:00,
2013-02-07 10:32:00,29.0,16.0,-100.00,ENE,65,4.0,8.0,58,-99.99,,,-99.99,,2013-02-07 15:32:00,
2013-02-07 10:42:00,29.0,16.0,-100.00,East,85,4.0,7.0,58,-99.99,,,-99.99,,2013-02-07 15:42:00,
2013-02-07 10:52:00,29.0,17.0,-100.00,East,80,3.0,9.0,58,-99.99,,,-99.99,,2013-02-07 15:52:00,
2013-02-07 11:01:00,30.0,17.0,-100.00,East,80,4.0,9.0,58,-99.99,,,-99.99,,2013-02-07 16:01:00,
2013-02-07 11:11:00,31.0,18.0,-100.00,ENE,65,2.0,7.0,57,-99.99,,,-99.99,,2013-02-07 16:11:00,
2013-02-07 11:21:00,32.0,18.0,-100.00,East,90,4.0,7.0,56,-99.99,,,-99.99,,2013-02-07 16:21:00,
2013-02-07 11:32:00,32.0,19.0,-100.00,ESE,105,5.0,11.0,56,-99.99,,,-99.99,,2013-02-07 16:32:00,
2013-02-07 11:42:00,33.0,19.0,-100.00,ESE,110,4.0,11.0,56,-99.99,,,-99.99,,2013-02-07 16:42:00,
2013-02-07 11:52:00,35.0,20.0,-100.00,East,100,5.0,9.0,54,-99.99,,,-99.99,,2013-02-07 16:52:00,
2013-02-07 12:01:00,35.0,20.0,-100.00,East,100,5.0,9.0,54,-99.99,,,-99.99,,2013-02-07 17:01:00,
2013-02-07 12:11:00,37.0,20.0,-100.00,ESE,105,6.0,11.0,51,-99.99,,,-99.99,,2013-02-07 17:11:00,
2013-02-07 12:21:00,38.0,21.0,-100.00,ENE,65,5.0,9.0,50,-99.99,,,-99.99,,2013-02-07 17:21:00,
2013-02-07 12:32:00,39.0,21.0,-100.00,ENE,70,4.0,9.0,48,-99.99,,,-99.99,,2013-02-07 17:32:00,
2013-02-07 12:43:00,39.0,20.0,-100.00,ESE,120,6.0,10.0,46,-99.99,,,-99.99,,2013-02-07 17:43:00,
2013-02-07 12:52:00,38.0,19.0,-100.00,ESE,105,6.0,12.0,46,-99.99,,,-99.99,,2013-02-07 17:52:00,
2013-02-07 13:02:00,39.0,20.0,-100.00,East,100,6.0,10.0,45,-99.99,,,-99.99,,2013-02-07 18:02:00,
2013-02-07 13:11:00,41.0,21.0,-100.00,ESE,120,4.0,10.0,44,-99.99,,,-99.99,,2013-02-07 18:11:00,
2013-02-07 13:23:00,41.0,20.0,-100.00,East,90,7.0,14.0,43,-99.99,,,-99.99,,2013-02-07 18:23:00,
2013-02-07 13:32:00,40.0,20.0,-100.00,East,80,9.0,15.0,43,-99.99,,,-99.99,,2013-02-07 18:32:00,
2013-02-07 13:42:00,42.0,21.0,-100.00,East,80,7.0,12.0,43,-99.99,,,-99.99,,2013-02-07 18:42:00,
2013-02-07 13:52:00,42.0,21.0,-100.00,East,80,7.0,12.0,43,-99.99,,,-99.99,,2013-02-07 18:52:00,
2013-02-07 14:01:00,42.0,21.0,-100.00,East,80,7.0,13.0,43,-99.99,,,-99.99,,2013-02-07 19:01:00,
2013-02-07 14:11:00,42.0,21.0,-100.00,ESE,105,8.0,14.0,43,-99.99,,,-99.99,,2013-02-07 19:11:00,
2013-02-07 14:22:00,43.0,22.0,-100.00,East,85,7.0,12.0,42,-99.99,,,-99.99,,2013-02-07 19:22:00,
2013-02-07 14:32:00,44.0,22.0,-100.00,East,90,4.0,12.0,42,-99.99,,,-99.99,,2013-02-07 19:32:00,
2013-02-07 14:42:00,44.0,22.0,-100.00,ESE,105,6.0,14.0,41,-99.99,,,-99.99,,2013-02-07 19:42:00,
2013-02-07 14:52:00,45.0,22.0,-100.00,East,90,6.0,10.0,39,-99.99,,,-99.99,,2013-02-07 19:52:00,
2013-02-07 15:01:00,45.0,22.0,-100.00,East,95,7.0,14.0,39,-99.99,,,-99.99,,2013-02-07 20:01:00,
2013-02-07 15:11:00,44.0,21.0,-100.00,ESE,105,7.0,15.0,39,-99.99,,,-99.99,,2013-02-07 20:11:00,
2013-02-07 15:22:00,44.0,22.0,-100.00,East,80,7.0,12.0,39,-99.99,,,-99.99,,2013-02-07 20:22:00,
2013-02-07 15:32:00,45.0,22.0,-100.00,ESE,110,6.0,11.0,39,-99.99,,,-99.99,,2013-02-07 20:32:00,
2013-02-07 15:42:00,45.0,22.0,-100.00,ESE,115,7.0,12.0,39,-99.99,,,-99.99,,2013-02-07 20:42:00,
2013-02-07 15:52:00,45.0,22.0,-100.00,ENE,75,6.0,9.0,39,-99.99,,,-99.99,,2013-02-07 20:52:00,
2013-02-07 16:02:00,44.0,21.0,-100.00,ESE,110,7.0,12.0,40,-99.99,,,-99.99,,2013-02-07 21:02:00,
2013-02-07 16:11:00,44.0,22.0,-100.00,East,80,7.0,10.0,40,-99.99,,,-99.99,,2013-02-07 21:11:00,
2013-02-07 16:21:00,44.0,22.0,-100.00,East,85,3.0,7.0,40,-99.99,,,-99.99,,2013-02-07 21:21:00,
2013-02-07 16:32:00,45.0,22.0,-100.00,ENE,70,4.0,9.0,40,-99.99,,,-99.99,,2013-02-07 21:32:00,
2013-02-07 16:42:00,45.0,22.0,-100.00,East,80,5.0,11.0,40,-99.99,,,-99.99,,2013-02-07 21:42:00,
2013-02-07 16:52:00,45.0,22.0,-100.00,East,95,4.0,9.0,40,-99.99,,,-99.99,,2013-02-07 21:52:00,
2013-02-07 17:02:00,45.0,22.0,-100.00,ESE,110,3.0,7.0,40,-99.99,,,-99.99,,2013-02-07 22:02:00,
2013-02-07 17:11:00,44.0,22.0,-100.00,ENE,75,9.0,14.0,41,-99.99,,,-99.99,,2013-02-07 22:11:00,
2013-02-07 17:21:00,44.0,22.0,-100.00,East,80,4.0,10.0,42,-99.99,,,-99.99,,2013-02-07 22:21:00,
2013-02-07 17:32:00,43.0,22.0,-100.00,East,100,6.0,16.0,42,-99.99,,,-99.99,,2013-02-07 22:32:00,
2013-02-07 17:42:00,43.0,22.0,-100.00,ENE,75,2.0,9.0,43,-99.99,,,-99.99,,2013-02-07 22:42:00,
2013-02-07 17:51:00,42.0,22.0,-100.00,East,90,6.0,9.0,44,-99.99,,,-99.99,,2013-02-07 22:51:00,
2013-02-07 18:02:00,42.0,22.0,-100.00,East,90,4.0,7.0,44,-99.99,,,-99.99,,2013-02-07 23:02:00,
2013-02-07 18:11:00,41.0,22.0,-100.00,East,100,4.0,7.0,45,-99.99,,,-99.99,,2013-02-07 23:11:00,
2013-02-07 18:22:00,41.0,22.0,-100.00,East,100,4.0,7.0,45,-99.99,,,-99.99,,2013-02-07 23:22:00,
2013-02-07 18:32:00,40.0,22.0,-100.00,ENE,70,3.0,6.0,48,-99.99,,,-99.99,,2013-02-07 23:32:00,
2013-02-07 18:42:00,40.0,22.0,-100.00,SE,125,1.0,6.0,49,-99.99,,,-99.99,,2013-02-07 23:42:00,
2013-02-07 18:52:00,39.0,22.0,-100.00,ESE,105,3.0,6.0,50,-99.99,,,-99.99,,2013-02-07 23:52:00,
2013-02-07 19:02:00,39.0,23.0,-100.00,East,95,3.0,9.0,51,-99.99,,,-99.99,,2013-02-08 00:02:00,
2013-02-07 19:11:00,39.0,23.0,-100.00,East,85,2.0,6.0,52,-99.99,,,-99.99,,2013-02-08 00:11:00,
2013-02-07 19:21:00,38.0,23.0,-100.00,East,85,4.0,6.0,53,-99.99,,,-99.99,,2013-02-08 00:21:00,
2013-02-07 19:32:00,38.0,23.0,-100.00,East,90,6.0,10.0,54,-99.99,,,-99.99,,2013-02-08 00:32:00,
2013-02-07 19:42:00,38.0,24.0,-100.00,East,80,4.0,10.0,54,-99.99,,,-99.99,,2013-02-08 00:42:00,
2013-02-07 19:52:00,39.0,24.0,-100.00,East,80,5.0,11.0,54,-99.99,,,-99.99,,2013-02-08 00:52:00,
2013-02-07 20:01:00,38.0,24.0,-100.00,East,90,4.0,9.0,54,-99.99,,,-99.99,,2013-02-08 01:01:00,
2013-02-07 20:11:00,38.0,24.0,-100.00,East,80,5.0,10.0,54,-99.99,,,-99.99,,2013-02-08 01:11:00,
2013-02-07 20:21:00,38.0,24.0,-100.00,ESE,110,4.0,7.0,55,-99.99,,,-99.99,,2013-02-08 01:21:00,
2013-02-07 20:32:00,38.0,24.0,-100.00,East,80,5.0,10.0,56,-99.99,,,-99.99,,2013-02-08 01:32:00,
2013-02-07 20:41:00,38.0,24.0,-100.00,NE,55,4.0,7.0,57,-99.99,,,-99.99,,2013-02-08 01:41:00,
2013-02-07 20:51:00,38.0,24.0,-100.00,NE,50,3.0,7.0,57,-99.99,,,-99.99,,2013-02-08 01:51:00,
2013-02-07 21:01:00,37.0,24.0,-100.00,East,80,4.0,9.0,57,-99.99,,,-99.99,,2013-02-08 02:01:00,
2013-02-07 21:11:00,37.0,24.0,-100.00,East,90,3.0,9.0,58,-99.99,,,-99.99,,2013-02-08 02:11:00,
2013-02-07 21:21:00,37.0,24.0,-100.00,East,95,3.0,6.0,59,-99.99,,,-99.99,,2013-02-08 02:21:00,
2013-02-07 21:32:00,37.0,24.0,-100.00,ENE,75,3.0,7.0,59,-99.99,,,-99.99,,2013-02-08 02:32:00,
2013-02-07 21:42:00,37.0,24.0,-100.00,East,85,4.0,7.0,60,-99.99,,,-99.99,,2013-02-08 02:42:00,
2013-02-07 21:52:00,36.0,24.0,-100.00,East,100,4.0,9.0,61,-99.99,,,-99.99,,2013-02-08 02:52:00,
2013-02-07 22:02:00,36.0,24.0,-100.00,East,95,4.0,7.0,61,-99.99,,,-99.99,,2013-02-08 03:02:00,
2013-02-07 22:12:00,36.0,25.0,-100.00,East,80,4.0,9.0,62,-99.99,,,-99.99,,2013-02-08 03:12:00,
2013-02-07 22:22:00,36.0,25.0,-100.00,East,80,4.0,8.0,62,-99.99,,,-99.99,,2013-02-08 03:22:00,
2013-02-07 22:32:00,36.0,25.0,-100.00,East,80,6.0,9.0,63,-99.99,,,-99.99,,2013-02-08 03:32:00,
2013-02-07 22:42:00,36.0,25.0,-100.00,ESE,105,5.0,11.0,63,-99.99,,,-99.99,,2013-02-08 03:42:00,
2013-02-07 22:52:00,36.0,25.0,-100.00,East,85,5.0,12.0,63,-99.99,,,-99.99,,2013-02-08 03:52:00,
2013-02-07 23:02:00,36.0,25.0,-100.00,East,95,6.0,12.0,64,-99.99,,,-99.99,,2013-02-08 04:02:00,
2013-02-07 23:11:00,36.0,25.0,-100.00,ENE,75,4.0,10.0,64,-99.99,,,-99.99,,2013-02-08 04:11:00,
2013-02-07 23:21:00,36.0,26.0,-100.00,East,90,4.0,11.0,65,-99.99,,,-99.99,,2013-02-08 04:21:00,
2013-02-07 23:32:00,36.0,26.0,-100.00,East,95,4.0,9.0,65,-99.99,,,-99.99,,2013-02-08 04:32:00,
2013-02-07 23:42:00,36.0,26.0,-100.00,East,100,4.0,8.0,66,-99.99,,,-99.99,,2013-02-08 04:42:00,
2013-02-07 23:51:00,36.0,26.0,-100.00,East,100,5.0,12.0,67,-99.99,,,-99.99,,2013-02-08 04:51:00,